This is the latest recevied weather packets stored in our database for station/object VE7GEL. If no packets are shown the sender has not sent any weather packets the latest 10 day(s).
| Time | Temp. | Humidity | Pressure | Rain* | Wind** | Luminosity | Snow |
|---|---|---|---|---|---|---|---|
| 1777442496 | 11.11° C | 80% | 1023.7 hPa | 0 mm | - | 0 W/m² | - |
| 1777441596 | 11.11° C | 80% | 1023.6 hPa | 0 mm | - | 0 W/m² | - |
| 1777441503 | 11.11° C | 80% | 1023.9 hPa | 0 mm | - | 0 W/m² | - |
| 1777440697 | 11.11° C | 79% | 1023.5 hPa | 0 mm | - | 0 W/m² | - |
| 1777439794 | 11.11° C | 77% | 1023.6 hPa | 0 mm | - | 0 W/m² | - |
| 1777439702 | 11.11° C | 77% | 1023.9 hPa | 0 mm | - | 0 W/m² | - |
| 1777438894 | 11.67° C | 76% | 1023.5 hPa | 0 mm | - | 0 W/m² | - |
| 1777437996 | 11.67° C | 77% | 1023.4 hPa | 0 mm | - | 0 W/m² | - |
| 1777437902 | 11.67° C | 78% | 1023.7 hPa | 0 mm | - | 0 W/m² | - |
| 1777437092 | 11.67° C | 77% | 1023.4 hPa | 0 mm | - | 0 W/m² | - |
| 1777436192 | 11.67° C | 78% | 1023.2 hPa | 0 mm | - | 0 W/m² | - |
| 1777436103 | 11.67° C | 78% | 1023.5 hPa | 0 mm | - | 0 W/m² | - |
| 1777435293 | 11.67° C | 76% | 1023.1 hPa | 0 mm | - | 0 W/m² | - |
| 1777434394 | 11.67° C | 75% | 1023 hPa | 0 mm | - | 0 W/m² | - |
| 1777434302 | 11.67° C | 76% | 1023.3 hPa | 0 mm | - | 0 W/m² | - |
| 1777433492 | 11.67° C | 76% | 1022.9 hPa | 0 mm | - | 0 W/m² | - |
| 1777432587 | 11.67° C | 74% | 1022.8 hPa | 0 mm | - | 4 W/m² | - |
| 1777432503 | 11.67° C | 74% | 1023.1 hPa | 0 mm | - | 4 W/m² | - |
| 1777431688 | 12.22° C | 75% | 1022.8 hPa | 0 mm | - | 10 W/m² | - |
| 1777430787 | 12.22° C | 77% | 1022.7 hPa | 0 mm | - | 16 W/m² | - |
| 1777429887 | 12.22° C | 78% | 1022.5 hPa | 0 mm | - | 24 W/m² | - |
| 1777428988 | 12.78° C | 73% | 1022.6 hPa | 0 mm | - | 97 W/m² | - |
| 1777428086 | 13.89° C | 68% | 1022.7 hPa | 0 mm | - | 142 W/m² | - |
| 1777427184 | 13.89° C | 70% | 1022.5 hPa | 0 mm | - | 198 W/m² | - |
| 1777427103 | 13.89° C | 70% | 1022.9 hPa | 0 mm | - | 204 W/m² | - |
* Rain latest hour (hover to see other rain measurements)
** Current wind speed in m/s (hover to see current wind gust speed)